{"data":{"norad_id":64330,"intl_designator":"2025-124P","name":"STARLINK-34252","alt_names":[],"object_type":"PAYLOAD","status":"ACTIVE","operator":null,"country":"US","launch_date":"2025-06-10","launch_site_code":"AFETR","launch_vehicle":null,"mission":null,"orbit_class":"UNKNOWN","rcs_meters":null,"size_class":null,"mass_kg":null,"dimensions":null,"purposes":["comms"],"wikipedia_slug":null,"has_3d_model":false,"image_url":null,"decayed_at":null,"tle_current":{"epoch":"2026-09-20T21:39:35.625888Z","epoch_age_seconds":99617,"freshness":"FRESH","line1":"1 64330U 25124P   26263.90249567  .00010905  00000+0  40510-3 0  9998","line2":"2 64330  42.9975  99.4305 0001151 272.6560  87.4160 15.27588909 71637","mean_motion":15.27588909,"eccentricity":0.0001151,"inclination_deg":42.9975,"raan_deg":99.4305,"arg_perigee_deg":272.656,"mean_anomaly_deg":87.416,"bstar":0.0004051,"rev_number":7163,"period_min":94.266198943711,"perigee_km":482.23269996913,"apogee_km":483.81213886748,"semimajor_km":6861.1594194183,"source":"CELESTRAK","updated_at":"2026-09-21T09:00:35.313304Z"}}}